Weather Roundup
Issued by NWS Corpus Christi, TX

Home | Current Version | Previous Version | Text Only | Print | Product List | Glossary On
Versions: 1 2 3 4 5 6 7 8 9 10 11 12 13 14 15 16 17 18 19 20 21 22 23 24 25 26 27 28 29 30 31 32 33 34 35 36 37 38 39 40 41 42 43 44 45 46 47 48 49 50
000
ASUS44 KCRP 060210
HRRCRP

SOUTH TEXAS REGIONAL WEATHER ROUNDUP
NATIONAL WEATHER SERVICE CORPUS CHRISTI TX
900 PM CDT THU MAY 05 2016


TXZ229>244-060300-
...CORPUS CHRISTI AREA OBSERVATIONS...

CITY           SKY/WX    TMP DP  RH WIND       PRES   REMARKS
CORPUS CHRISTI MOCLDY    77  53  43 S7        29.96R
NAS CORPUS CHR MOCLDY    74  62  66 SE6       29.96R
ROCKPORT       PTCLDY    73  54  51 CALM      29.96R
KINGSVILLE NAS MOCLDY    72  61  68 SE8       29.96R
ALICE          PTCLDY    72  55  55 SE7       29.96R
FALFURRIAS     CLEAR     78  54  42 SE6       29.96R
$$

...VICTORIA AREA OBSERVATIONS...

CITY           SKY/WX    TMP DP  RH WIND       PRES   REMARKS
VICTORIA       CLEAR     73  64  73 N5        29.97R
BEEVILLE       FAIR      74  51  43 NE6       29.98R
PLEASANTON     PTCLDY    74  48  40 NE6       29.99R
SAN ANTONIO    MOCLDY    76  53  44 E7        30.01R
$$

...LAREDO AREA OBSERVATIONS...

CITY           SKY/WX    TMP DP  RH WIND       PRES   REMARKS
LAREDO         PTCLDY    84  43  23 NE8       29.95R
COTULLA        PTCLDY    84  38  19 E8        29.98R
DEL RIO        CLEAR     77  45  32 E7        29.97R
MCALLEN        CLEAR     82  55  39 SE13      29.96R
HEBBRONVILLE   CLEAR     83  49  31 SE9       29.98R
$$

...OTHER TEXAS OBSERVATIONS...

CITY           SKY/WX    TMP DP  RH WIND       PRES   REMARKS
BROWNSVILLE    CLEAR     74  62  66 SE5       29.98R
HOUSTON        MOCLDY    72  49  44 N3        29.96R
COL. STATION   CLOUDY    72  52  49 N5        29.99R
AUSTIN         MOCLDY    68  61  78 CALM      29.99R
WACO           CLEAR     66  53  63 CALM      30.00R
FORT WORTH     PTCLDY    73  45  36 N6        30.00R
WICHITA FALLS  PTCLDY    71  51  49 E8        30.02R
LUBBOCK        PTCLDY    77  34  21 S16       30.03R
EL PASO        PTCLDY    85  30  13 SE16      29.91S
$$

...MARINE OBSERVATIONS...

STATION/POSITION TIME  SKY/WX   TEMP    WIND        PRES    VSBY  WAVE   SWELL
                                AIR SEA DIR/SP/G                  HT/PER HT/PER
                 (UTC)          (F)     (DEG/KT/KT) (MB)    (MI)  (FT/S) (FT/S)
PORT ARANSAS     0100            80 79  150/  5/  5 1014.9R
BUOY 90 E PORT A 0150            75 75  240/  4/  4 1014.2R         2/ 5   2/ 5
BUOY 45 SE BAFFI 0150            76 77  180/  6/  8 1014.4R         1
BUOY 200 E PT IS 0150                                 N/A           3/ 5   2/ 8
BUOY 15 E GALVES 0150            79 78  350/ 12/ 16 1013.6R         2/ 3
$$



USA.gov is the U.S. government's official web portal to all federal, state and local government web resources and services.